Wetterdaten: Freitag, 24.07.2015
Datum Zeit Temp. A. Feuchte A. Luftdruck Regen Wind Richtung Richtung Sonnenschein ET UV Solar Taupunkt Windchill Windben Empfang
24.07.2015 00:00 22,0 C 72 % 1011,4 hPa 0,0 l/m 0,0 km/h (0 Bft) NO 45 0 min 0,000 mm 0,0 UV-I 0 W/m 16,7 C 22,0 C 0,0 km/h (0 Bft) 0,00 %
24.07.2015 00:05 22,0 C 71 % 1011,5 hPa 0,0 l/m 0,0 km/h (0 Bft) N-NO 21 0 min 0,000 mm 0,0 UV-I 0 W/m 16,5 C 22,0 C 0,0 km/h (0 Bft) 0,00 %
24.07.2015 00:10 21,9 C 71 % 1011,3 hPa 0,0 l/m 0,0 km/h (0 Bft) NO 38 0 min 0,000 mm 0,0 UV-I 0 W/m 16,4 C 21,9 C 0,0 km/h (0 Bft) 0,00 %
24.07.2015 00:15 21,8 C 71 % 1011,4 hPa 0,0 l/m 0,0 km/h (0 Bft) NO 44 0 min 0,000 mm 0,0 UV-I 0 W/m 16,3 C 21,8 C 0,0 km/h (0 Bft) 0,00 %
24.07.2015 00:20 21,8 C 71 % 1011,4 hPa 0,0 l/m 0,0 km/h (0 Bft) NO 41 0 min 0,000 mm 0,0 UV-I 0 W/m 16,3 C 21,8 C 0,0 km/h (0 Bft) 0,00 %
24.07.2015 00:25 21,7 C 71 % 1011,4 hPa 0,0 l/m 0,0 km/h (0 Bft) NO 54 0 min 0,000 mm 0,0 UV-I 0 W/m 16,2 C 21,7 C 0,0 km/h (0 Bft) 0,00 %
24.07.2015 00:30 21,6 C 71 % 1011,4 hPa 0,0 l/m 0,0 km/h (0 Bft) NO 39 0 min 0,000 mm 0,0 UV-I 0 W/m 16,1 C 21,6 C 0,0 km/h (0 Bft) 0,00 %
24.07.2015 00:35 21,5 C 71 % 1011,5 hPa 0,0 l/m 0,0 km/h (0 Bft) NO 40 0 min 0,000 mm 0,0 UV-I 0 W/m 16,0 C 21,5 C 0,0 km/h (0 Bft) 0,00 %
24.07.2015 00:40 21,5 C 71 % 1011,4 hPa 0,0 l/m 0,0 km/h (0 Bft) NO 41 0 min 0,000 mm 0,0 UV-I 0 W/m 16,0 C 21,5 C 0,0 km/h (0 Bft) 0,00 %
24.07.2015 00:45 21,4 C 71 % 1011,6 hPa 0,0 l/m 0,0 km/h (0 Bft) NO 43 0 min 0,000 mm 0,0 UV-I 0 W/m 15,9 C 21,4 C 0,0 km/h (0 Bft) 0,00 %
24.07.2015 00:50 21,3 C 71 % 1011,6 hPa 0,0 l/m 0,0 km/h (0 Bft) NO 39 0 min 0,000 mm 0,0 UV-I 0 W/m 15,8 C 21,3 C 0,0 km/h (0 Bft) 0,00 %
24.07.2015 00:55 21,2 C 72 % 1011,8 hPa 0,0 l/m 0,0 km/h (0 Bft) N-NO 28 0 min 0,000 mm 0,0 UV-I 0 W/m 15,9 C 21,2 C 0,0 km/h (0 Bft) 0,00 %
24.07.2015 01:00 21,1 C 73 % 1011,8 hPa 0,0 l/m 0,0 km/h (0 Bft) N 355 0 min 0,000 mm 0,0 UV-I 0 W/m 16,1 C 21,1 C 0,0 km/h (0 Bft) 0,00 %
24.07.2015 01:05 21,0 C 72 % 1011,7 hPa 0,0 l/m 0,0 km/h (0 Bft) NO 50 0 min 0,000 mm 0,0 UV-I 0 W/m 15,8 C 21,0 C 0,0 km/h (0 Bft) 0,00 %
24.07.2015 01:10 21,0 C 73 % 1011,7 hPa 0,0 l/m 0,0 km/h (0 Bft) W 280 0 min 0,000 mm 0,0 UV-I 0 W/m 16,0 C 21,0 C 0,0 km/h (0 Bft) 0,00 %
24.07.2015 01:15 21,0 C 73 % 1011,7 hPa 0,0 l/m 0,0 km/h (0 Bft) NO 42 0 min 0,000 mm 0,0 UV-I 0 W/m 16,0 C 21,0 C 0,0 km/h (0 Bft) 0,00 %
24.07.2015 01:20 21,1 C 73 % 1011,8 hPa 0,0 l/m 0,0 km/h (0 Bft) N-NO 30 0 min 0,000 mm 0,0 UV-I 0 W/m 16,1 C 21,1 C 0,0 km/h (0 Bft) 0,00 %
24.07.2015 01:25 21,0 C 73 % 1011,5 hPa 0,0 l/m 0,0 km/h (0 Bft) NO 47 0 min 0,000 mm 0,0 UV-I 0 W/m 16,0 C 21,0 C 0,0 km/h (0 Bft) 0,00 %
24.07.2015 01:30 21,0 C 73 % 1011,8 hPa 0,0 l/m 0,0 km/h (0 Bft) NO 39 0 min 0,000 mm 0,0 UV-I 0 W/m 16,0 C 21,0 C 0,0 km/h (0 Bft) 0,00 %
24.07.2015 01:35 20,9 C 74 % 1011,8 hPa 0,0 l/m 0,0 km/h (0 Bft) NO 37 0 min 0,000 mm 0,0 UV-I 0 W/m 16,1 C 20,9 C 0,0 km/h (0 Bft) 0,00 %
24.07.2015 01:40 20,9 C 74 % 1011,5 hPa 0,0 l/m 0,0 km/h (0 Bft) NO 35 0 min 0,000 mm 0,0 UV-I 0 W/m 16,1 C 20,9 C 0,0 km/h (0 Bft) 0,00 %
24.07.2015 01:45 20,9 C 74 % 1011,4 hPa 0,0 l/m 0,0 km/h (0 Bft) NO 45 0 min 0,000 mm 0,0 UV-I 0 W/m 16,1 C 20,9 C 0,0 km/h (0 Bft) 0,00 %
24.07.2015 01:50 20,9 C 73 % 1011,6 hPa 0,0 l/m 0,0 km/h (0 Bft) NO 36 0 min 0,000 mm 0,0 UV-I 0 W/m 15,9 C 20,9 C 0,0 km/h (0 Bft) 0,00 %
24.07.2015 01:55 20,9 C 73 % 1011,5 hPa 0,0 l/m 0,0 km/h (0 Bft) NO 40 0 min 0,000 mm 0,0 UV-I 0 W/m 15,9 C 20,9 C 0,0 km/h (0 Bft) 0,00 %
24.07.2015 02:00 20,9 C 73 % 1011,6 hPa 0,0 l/m 0,0 km/h (0 Bft) NO 46 0 min 0,000 mm 0,0 UV-I 0 W/m 15,9 C 20,9 C 0,0 km/h (0 Bft) 0,00 %
24.07.2015 02:05 21,0 C 73 % 1011,3 hPa 0,0 l/m 0,0 km/h (0 Bft) NO 51 0 min 0,000 mm 0,0 UV-I 0 W/m 16,0 C 21,0 C 0,0 km/h (0 Bft) 0,00 %
24.07.2015 02:10 20,9 C 74 % 1011,2 hPa 0,0 l/m 0,0 km/h (0 Bft) NO 35 0 min 0,000 mm 0,0 UV-I 0 W/m 16,1 C 20,9 C 0,0 km/h (0 Bft) 0,00 %
24.07.2015 02:15 20,9 C 74 % 1011,1 hPa 0,0 l/m 0,0 km/h (0 Bft) N-NO 31 0 min 0,000 mm 0,0 UV-I 0 W/m 16,1 C 20,9 C 0,0 km/h (0 Bft) 0,00 %
24.07.2015 02:20 20,8 C 74 % 1011,1 hPa 0,0 l/m 0,0 km/h (0 Bft) NO 37 0 min 0,000 mm 0,0 UV-I 0 W/m 16,0 C 20,8 C 0,0 km/h (0 Bft) 0,00 %
24.07.2015 02:25 20,6 C 75 % 1011,2 hPa 0,0 l/m 0,0 km/h (0 Bft) NO 39 0 min 0,000 mm 0,0 UV-I 0 W/m 16,0 C 20,6 C 0,0 km/h (0 Bft) 0,00 %
24.07.2015 02:30 20,4 C 75 % 1011,0 hPa 0,0 l/m 0,0 km/h (0 Bft) NO 52 0 min 0,000 mm 0,0 UV-I 0 W/m 15,8 C 20,4 C 0,0 km/h (0 Bft) 0,00 %
24.07.2015 02:35 20,2 C 76 % 1010,8 hPa 0,0 l/m 0,0 km/h (0 Bft) O-NO 57 0 min 0,000 mm 0,0 UV-I 0 W/m 15,8 C 20,2 C 0,0 km/h (0 Bft) 0,00 %
24.07.2015 02:40 20,1 C 77 % 1011,1 hPa 0,0 l/m 0,0 km/h (0 Bft) NO 45 0 min 0,000 mm 0,0 UV-I 0 W/m 15,9 C 20,1 C 0,0 km/h (0 Bft) 0,00 %
24.07.2015 02:45 20,0 C 78 % 1010,9 hPa 0,0 l/m 0,0 km/h (0 Bft) NO 40 0 min 0,000 mm 0,0 UV-I 0 W/m 16,0 C 20,0 C 0,0 km/h (0 Bft) 0,00 %
24.07.2015 02:50 19,9 C 78 % 1011,0 hPa 0,0 l/m 0,0 km/h (0 Bft) N 349 0 min 0,000 mm 0,0 UV-I 0 W/m 15,9 C 19,9 C 0,0 km/h (0 Bft) 0,00 %
24.07.2015 02:55 19,9 C 75 % 1011,0 hPa 0,0 l/m 0,7 km/h (0 Bft) W-SW 255 0 min 0,000 mm 0,0 UV-I 0 W/m 15,3 C 19,9 C 4,0 km/h (1 Bft) 0,00 %
24.07.2015 03:00 20,0 C 75 % 1011,1 hPa 0,0 l/m 0,0 km/h (0 Bft) NO 43 0 min 0,000 mm 0,0 UV-I 0 W/m 15,4 C 20,0 C 0,0 km/h (0 Bft) 0,00 %
24.07.2015 03:05 20,1 C 74 % 1010,9 hPa 0,0 l/m 0,0 km/h (0 Bft) N-NO 28 0 min 0,000 mm 0,0 UV-I 0 W/m 15,3 C 20,1 C 0,0 km/h (0 Bft) 0,00 %
24.07.2015 03:10 20,2 C 73 % 1010,9 hPa 0,0 l/m 0,0 km/h (0 Bft) N-NO 31 0 min 0,000 mm 0,0 UV-I 0 W/m 15,2 C 20,2 C 0,0 km/h (0 Bft) 0,00 %
24.07.2015 03:15 20,3 C 74 % 1010,9 hPa 0,0 l/m 0,0 km/h (0 Bft) NO 40 0 min 0,000 mm 0,0 UV-I 0 W/m 15,5 C 20,3 C 0,0 km/h (0 Bft) 0,00 %
24.07.2015 03:20 20,4 C 74 % 1010,9 hPa 0,0 l/m 0,0 km/h (0 Bft) NO 40 0 min 0,000 mm 0,0 UV-I 0 W/m 15,6 C 20,4 C 0,0 km/h (0 Bft) 0,00 %
24.07.2015 03:25 20,4 C 73 % 1011,0 hPa 0,0 l/m 0,0 km/h (0 Bft) NO 42 0 min 0,000 mm 0,0 UV-I 0 W/m 15,4 C 20,4 C 0,0 km/h (0 Bft) 0,00 %
24.07.2015 03:30 20,4 C 73 % 1010,8 hPa 0,0 l/m 0,0 km/h (0 Bft) NO 40 0 min 0,000 mm 0,0 UV-I 0 W/m 15,4 C 20,4 C 0,0 km/h (0 Bft) 0,00 %
24.07.2015 03:35 20,4 C 73 % 1010,9 hPa 0,0 l/m 0,0 km/h (0 Bft) N-NO 30 0 min 0,000 mm 0,0 UV-I 0 W/m 15,4 C 20,4 C 0,0 km/h (0 Bft) 0,00 %
24.07.2015 03:40 20,4 C 74 % 1010,9 hPa 0,0 l/m 0,0 km/h (0 Bft) N-NO 31 0 min 0,000 mm 0,0 UV-I 0 W/m 15,6 C 20,4 C 0,0 km/h (0 Bft) 0,00 %
24.07.2015 03:45 20,4 C 74 % 1010,9 hPa 0,0 l/m 0,0 km/h (0 Bft) NO 39 0 min 0,000 mm 0,0 UV-I 0 W/m 15,6 C 20,4 C 0,0 km/h (0 Bft) 0,00 %
24.07.2015 03:50 20,4 C 74 % 1011,0 hPa 0,0 l/m 0,0 km/h (0 Bft) NO 39 0 min 0,000 mm 0,0 UV-I 0 W/m 15,6 C 20,4 C 0,0 km/h (0 Bft) 0,00 %
24.07.2015 03:55 20,4 C 75 % 1011,1 hPa 0,0 l/m 0,0 km/h (0 Bft) NO 45 0 min 0,000 mm 0,0 UV-I 0 W/m 15,8 C 20,4 C 0,0 km/h (0 Bft) 0,00 %
24.07.2015 04:00 20,4 C 75 % 1011,0 hPa 0,0 l/m 0,0 km/h (0 Bft) NO 45 0 min 0,000 mm 0,0 UV-I 0 W/m 15,8 C 20,4 C 0,0 km/h (0 Bft) 0,00 %
24.07.2015 04:05 20,5 C 74 % 1011,0 hPa 0,0 l/m 0,0 km/h (0 Bft) NO 45 0 min 0,000 mm 0,0 UV-I 0 W/m 15,7 C 20,5 C 0,0 km/h (0 Bft) 0,00 %
24.07.2015 04:10 20,5 C 74 % 1010,9 hPa 0,0 l/m 0,0 km/h (0 Bft) NO 45 0 min 0,000 mm 0,0 UV-I 0 W/m 15,7 C 20,5 C 0,0 km/h (0 Bft) 0,00 %
24.07.2015 04:15 20,4 C 75 % 1011,1 hPa 0,0 l/m 0,0 km/h (0 Bft) NO 45 0 min 0,000 mm 0,0 UV-I 0 W/m 15,8 C 20,4 C 0,0 km/h (0 Bft) 0,00 %
24.07.2015 04:20 20,4 C 75 % 1011,2 hPa 0,0 l/m 0,0 km/h (0 Bft) NO 45 0 min 0,000 mm 0,0 UV-I 0 W/m 15,8 C 20,4 C 0,0 km/h (0 Bft) 0,00 %
24.07.2015 04:25 20,4 C 75 % 1011,2 hPa 0,0 l/m 0,0 km/h (0 Bft) NO 45 0 min 0,000 mm 0,0 UV-I 0 W/m 15,8 C 20,4 C 0,0 km/h (0 Bft) 0,00 %
24.07.2015 04:30 20,4 C 76 % 1011,1 hPa 0,0 l/m 0,0 km/h (0 Bft) NO 45 0 min 0,000 mm 0,0 UV-I 0 W/m 16,0 C 20,4 C 0,0 km/h (0 Bft) 0,00 %
24.07.2015 04:35 20,4 C 75 % 1011,1 hPa 0,0 l/m 0,0 km/h (0 Bft) NO 45 0 min 0,000 mm 0,0 UV-I 0 W/m 15,8 C 20,4 C 0,0 km/h (0 Bft) 0,00 %
24.07.2015 04:40 20,4 C 75 % 1010,9 hPa 0,0 l/m 0,0 km/h (0 Bft) NO 36 0 min 0,000 mm 0,0 UV-I 0 W/m 15,8 C 20,4 C 0,0 km/h (0 Bft) 0,00 %
24.07.2015 04:45 20,3 C 75 % 1011,0 hPa 0,0 l/m 0,0 km/h (0 Bft) NO 38 0 min 0,000 mm 0,0 UV-I 0 W/m 15,7 C 20,3 C 0,0 km/h (0 Bft) 0,00 %
24.07.2015 04:50 20,3 C 76 % 1011,0 hPa 0,0 l/m 0,0 km/h (0 Bft) NO 34 0 min 0,000 mm 0,0 UV-I 0 W/m 15,9 C 20,3 C 0,0 km/h (0 Bft) 0,00 %
24.07.2015 04:55 20,2 C 77 % 1010,9 hPa 0,0 l/m 0,0 km/h (0 Bft) NO 40 0 min 0,000 mm 0,0 UV-I 0 W/m 16,0 C 20,2 C 0,0 km/h (0 Bft) 0,00 %
24.07.2015 05:00 20,2 C 79 % 1010,9 hPa 0,0 l/m 0,0 km/h (0 Bft) NO 40 0 min 0,000 mm 0,0 UV-I 0 W/m 16,4 C 20,2 C 0,0 km/h (0 Bft) 0,00 %
24.07.2015 05:05 20,1 C 79 % 1010,7 hPa 0,0 l/m 0,0 km/h (0 Bft) NO 40 0 min 0,000 mm 0,0 UV-I 0 W/m 16,3 C 20,1 C 0,0 km/h (0 Bft) 0,00 %
24.07.2015 05:10 19,9 C 80 % 1010,6 hPa 0,0 l/m 0,0 km/h (0 Bft) NO 40 0 min 0,000 mm 0,0 UV-I 0 W/m 16,3 C 19,9 C 0,0 km/h (0 Bft) 0,00 %
24.07.2015 05:15 19,9 C 80 % 1010,6 hPa 0,0 l/m 0,0 km/h (0 Bft) NO 41 0 min 0,000 mm 0,0 UV-I 0 W/m 16,3 C 19,9 C 0,0 km/h (0 Bft) 0,00 %
24.07.2015 05:20 19,7 C 80 % 1010,7 hPa 0,0 l/m 0,0 km/h (0 Bft) NO 51 0 min 0,000 mm 0,0 UV-I 0 W/m 16,1 C 19,7 C 0,0 km/h (0 Bft) 0,00 %
24.07.2015 05:25 19,7 C 80 % 1010,8 hPa 0,0 l/m 0,0 km/h (0 Bft) NO 51 0 min 0,000 mm 0,0 UV-I 0 W/m 16,1 C 19,7 C 0,0 km/h (0 Bft) 0,00 %
24.07.2015 05:30 19,6 C 80 % 1010,8 hPa 0,0 l/m 0,0 km/h (0 Bft) NO 51 0 min 0,000 mm 0,0 UV-I 0 W/m 16,1 C 19,6 C 0,0 km/h (0 Bft) 0,00 %
24.07.2015 05:35 19,6 C 80 % 1010,6 hPa 0,0 l/m 0,0 km/h (0 Bft) NO 51 0 min 0,000 mm 0,0 UV-I 0 W/m 16,1 C 19,6 C 0,0 km/h (0 Bft) 0,00 %
24.07.2015 05:40 19,6 C 80 % 1010,5 hPa 0,0 l/m 0,0 km/h (0 Bft) NO 51 0 min 0,000 mm 0,0 UV-I 0 W/m 16,1 C 19,6 C 0,0 km/h (0 Bft) 0,00 %
24.07.2015 05:45 19,6 C 80 % 1010,7 hPa 0,0 l/m 0,0 km/h (0 Bft) O-NO 58 0 min 0,000 mm 0,0 UV-I 0 W/m 16,1 C 19,6 C 0,0 km/h (0 Bft) 0,00 %
24.07.2015 05:50 19,7 C 80 % 1010,8 hPa 0,0 l/m 0,0 km/h (0 Bft) O-NO 58 0 min 0,000 mm 0,0 UV-I 0 W/m 16,1 C 19,7 C 0,0 km/h (0 Bft) 0,00 %
24.07.2015 05:55 19,8 C 80 % 1010,8 hPa 0,0 l/m 0,0 km/h (0 Bft) O-NO 68 0 min 0,000 mm 0,0 UV-I 0 W/m 16,2 C 19,8 C 0,0 km/h (0 Bft) 0,00 %
24.07.2015 06:00 19,9 C 79 % 1010,5 hPa 0,0 l/m 0,0 km/h (0 Bft) O-NO 68 0 min 0,000 mm 0,0 UV-I 0 W/m 16,1 C 19,9 C 0,0 km/h (0 Bft) 0,00 %
24.07.2015 06:05 20,0 C 79 % 1010,7 hPa 0,0 l/m 0,0 km/h (0 Bft) NO 43 0 min 0,000 mm 0,0 UV-I 0 W/m 16,2 C 20,0 C 0,0 km/h (0 Bft) 0,00 %
24.07.2015 06:10 20,1 C 78 % 1010,6 hPa 0,0 l/m 0,0 km/h (0 Bft) O-NO 61 0 min 0,000 mm 0,0 UV-I 9 W/m 16,1 C 20,1 C 0,0 km/h (0 Bft) 0,00 %
24.07.2015 06:15 20,3 C 77 % 1010,5 hPa 0,0 l/m 0,0 km/h (0 Bft) O-NO 62 0 min 0,000 mm 0,0 UV-I 19 W/m 16,1 C 20,3 C 0,0 km/h (0 Bft) 0,00 %
24.07.2015 06:20 20,4 C 76 % 1010,6 hPa 0,0 l/m 0,0 km/h (0 Bft) O 94 0 min 0,000 mm 0,0 UV-I 32 W/m 16,0 C 20,4 C 0,0 km/h (0 Bft) 0,00 %
24.07.2015 06:25 20,7 C 75 % 1010,4 hPa 0,0 l/m 0,0 km/h (0 Bft) O-NO 76 0 min 0,000 mm 0,0 UV-I 45 W/m 16,1 C 20,7 C 0,0 km/h (0 Bft) 0,00 %
24.07.2015 06:30 20,9 C 74 % 1010,5 hPa 0,0 l/m 0,7 km/h (0 Bft) O 91 0 min 0,000 mm 0,0 UV-I 58 W/m 16,1 C 20,9 C 4,0 km/h (1 Bft) 0,00 %
24.07.2015 06:35 21,1 C 74 % 1010,4 hPa 0,0 l/m 0,0 km/h (0 Bft) O 88 0 min 0,000 mm 0,0 UV-I 73 W/m 16,3 C 21,1 C 0,0 km/h (0 Bft) 0,00 %
24.07.2015 06:40 21,4 C 73 % 1010,2 hPa 0,0 l/m 0,0 km/h (0 Bft) N-NW 336 0 min 0,000 mm 0,0 UV-I 88 W/m 16,4 C 21,4 C 0,0 km/h (0 Bft) 0,00 %
24.07.2015 06:45 21,6 C 73 % 1010,1 hPa 0,0 l/m 0,4 km/h (0 Bft) O-NO 70 5 min 0,000 mm 1,0 UV-I 108 W/m 16,5 C 21,6 C 4,0 km/h (1 Bft) 0,00 %
24.07.2015 06:50 21,8 C 73 % 1010,0 hPa 0,0 l/m 0,0 km/h (0 Bft) N 354 5 min 0,000 mm 1,0 UV-I 114 W/m 16,7 C 21,8 C 0,0 km/h (0 Bft) 0,00 %
24.07.2015 06:55 21,9 C 72 % 1010,0 hPa 0,0 l/m 1,4 km/h (1 Bft) O-NO 68 5 min 0,000 mm 1,0 UV-I 121 W/m 16,6 C 21,9 C 4,0 km/h (1 Bft) 0,00 %
24.07.2015 07:00 21,7 C 74 % 1010,4 hPa 0,0 l/m 1,8 km/h (1 Bft) NO 52 0 min 0,000 mm 1,0 UV-I 116 W/m 16,9 C 21,7 C 4,0 km/h (1 Bft) 0,00 %
24.07.2015 07:05 21,3 C 77 % 1010,1 hPa 0,0 l/m 0,4 km/h (0 Bft) O 79 0 min 0,000 mm 1,0 UV-I 120 W/m 17,1 C 21,3 C 4,0 km/h (1 Bft) 0,00 %
24.07.2015 07:10 20,9 C 78 % 1010,2 hPa 0,0 l/m 0,4 km/h (0 Bft) O 99 0 min 0,000 mm 1,0 UV-I 135 W/m 16,9 C 20,9 C 4,0 km/h (1 Bft) 0,00 %
24.07.2015 07:15 20,7 C 79 % 1010,2 hPa 0,0 l/m 0,0 km/h (0 Bft) O-NO 62 5 min 0,000 mm 1,0 UV-I 149 W/m 16,9 C 20,7 C 0,0 km/h (0 Bft) 0,00 %
24.07.2015 07:20 20,7 C 79 % 1010,2 hPa 0,0 l/m 0,0 km/h (0 Bft) NO 45 5 min 0,000 mm 1,0 UV-I 164 W/m 16,9 C 20,7 C 0,0 km/h (0 Bft) 0,00 %
24.07.2015 07:25 20,7 C 79 % 1010,0 hPa 0,0 l/m 0,0 km/h (0 Bft) N-NW 346 5 min 0,000 mm 1,0 UV-I 179 W/m 16,9 C 20,7 C 0,0 km/h (0 Bft) 0,00 %
24.07.2015 07:30 20,7 C 78 % 1010,0 hPa 0,0 l/m 0,7 km/h (0 Bft) NO 46 0 min 0,000 mm 1,0 UV-I 125 W/m 16,7 C 20,7 C 4,0 km/h (1 Bft) 0,00 %
24.07.2015 07:35 20,7 C 78 % 1010,2 hPa 0,0 l/m 0,4 km/h (0 Bft) O 96 0 min 0,000 mm 1,0 UV-I 146 W/m 16,7 C 20,7 C 4,0 km/h (1 Bft) 0,00 %
24.07.2015 07:40 20,8 C 75 % 1010,3 hPa 0,0 l/m 0,4 km/h (0 Bft) NO 45 0 min 0,000 mm 1,0 UV-I 173 W/m 16,2 C 20,8 C 4,0 km/h (1 Bft) 0,00 %
24.07.2015 07:45 21,0 C 73 % 1010,3 hPa 0,0 l/m 0,4 km/h (0 Bft) O-SO 117 5 min 0,000 mm 1,0 UV-I 202 W/m 16,0 C 21,0 C 4,0 km/h (1 Bft) 0,00 %
24.07.2015 07:50 21,3 C 71 % 1010,2 hPa 0,0 l/m 6,5 km/h (2 Bft) SO 128 5 min 0,000 mm 1,0 UV-I 241 W/m 15,8 C 21,3 C 7,9 km/h (2 Bft) 0,00 %
24.07.2015 07:55 21,7 C 69 % 1010,4 hPa 0,0 l/m 2,2 km/h (1 Bft) O-NO 72 5 min 0,000 mm 1,0 UV-I 289 W/m 15,8 C 21,7 C 4,0 km/h (1 Bft) 0,00 %
24.07.2015 08:00 22,0 C 68 % 1010,1 hPa 0,0 l/m 5,4 km/h (1 Bft) SO 141 5 min 0,000 mm 1,0 UV-I 218 W/m 15,8 C 22,0 C 7,9 km/h (2 Bft) 0,00 %
24.07.2015 08:05 21,9 C 69 % 1010,2 hPa 0,0 l/m 4,3 km/h (1 Bft) SO 138 0 min 0,000 mm 1,0 UV-I 211 W/m 15,9 C 21,9 C 7,9 km/h (2 Bft) 0,00 %
24.07.2015 08:10 21,9 C 69 % 1010,3 hPa 0,0 l/m 1,8 km/h (1 Bft) NO 51 5 min 0,000 mm 1,0 UV-I 252 W/m 15,9 C 21,9 C 4,0 km/h (1 Bft) 0,00 %
24.07.2015 08:15 22,2 C 67 % 1010,3 hPa 0,0 l/m 8,3 km/h (2 Bft) O-SO 107 5 min 0,000 mm 1,0 UV-I 370 W/m 15,8 C 21,6 C 11,9 km/h (2 Bft) 0,00 %
24.07.2015 08:20 22,7 C 63 % 1010,0 hPa 0,0 l/m 2,2 km/h (1 Bft) O-NO 68 5 min 0,000 mm 1,0 UV-I 391 W/m 15,3 C 22,7 C 4,0 km/h (1 Bft) 0,00 %
24.07.2015 08:25 23,2 C 64 % 1010,0 hPa 0,0 l/m 7,2 km/h (2 Bft) O-SO 122 5 min 0,000 mm 1,0 UV-I 406 W/m 16,0 C 23,0 C 7,9 km/h (2 Bft) 0,00 %
24.07.2015 08:30 23,4 C 63 % 1010,1 hPa 0,0 l/m 2,2 km/h (1 Bft) N-NO 30 5 min 0,000 mm 1,0 UV-I 381 W/m 15,9 C 23,4 C 4,0 km/h (1 Bft) 0,00 %
24.07.2015 08:35 23,9 C 60 % 1010,1 hPa 0,0 l/m 0,4 km/h (0 Bft) NO 34 5 min 0,000 mm 2,0 UV-I 486 W/m 15,7 C 23,9 C 4,0 km/h (1 Bft) 0,00 %
24.07.2015 08:40 24,5 C 57 % 1009,9 hPa 0,0 l/m 4,0 km/h (1 Bft) O-NO 66 5 min 0,000 mm 2,0 UV-I 555 W/m 15,4 C 24,5 C 7,9 km/h (2 Bft) 0,00 %
24.07.2015 08:45 24,9 C 57 % 1009,7 hPa 0,0 l/m 1,4 km/h (1 Bft) NO 42 5 min 0,000 mm 2,0 UV-I 535 W/m 15,8 C 24,9 C 4,0 km/h (1 Bft) 0,00 %
24.07.2015 08:50 24,9 C 58 % 1009,6 hPa 0,0 l/m 4,0 km/h (1 Bft) O 95 5 min 0,000 mm 2,0 UV-I 401 W/m 16,1 C 24,9 C 7,9 km/h (2 Bft) 0,00 %
24.07.2015 08:55 24,8 C 58 % 1009,7 hPa 0,0 l/m 1,8 km/h (1 Bft) NO 56 5 min 0,000 mm 2,0 UV-I 427 W/m 16,0 C 24,8 C 4,0 km/h (1 Bft) 0,00 %
24.07.2015 09:00 24,7 C 58 % 1009,6 hPa 0,0 l/m 0,0 km/h (0 Bft) SO 125 5 min 0,000 mm 2,0 UV-I 414 W/m 15,9 C 24,7 C 0,0 km/h (0 Bft) 0,00 %
24.07.2015 09:05 24,7 C 60 % 1009,8 hPa 0,0 l/m 0,4 km/h (0 Bft) O-SO 112 5 min 0,000 mm 1,0 UV-I 355 W/m 16,4 C 24,7 C 4,0 km/h (1 Bft) 0,00 %
24.07.2015 09:10 24,6 C 60 % 1009,6 hPa 0,0 l/m 2,2 km/h (1 Bft) O-NO 57 5 min 0,000 mm 1,0 UV-I 319 W/m 16,3 C 24,6 C 4,0 km/h (1 Bft) 0,00 %
24.07.2015 09:15 24,5 C 60 % 1009,7 hPa 0,0 l/m 4,3 km/h (1 Bft) O-SO 103 5 min 0,000 mm 2,0 UV-I 327 W/m 16,2 C 24,5 C 7,9 km/h (2 Bft) 0,00 %
24.07.2015 09:20 24,7 C 58 % 1009,6 hPa 0,0 l/m 2,9 km/h (1 Bft) O-NO 78 5 min 0,000 mm 2,0 UV-I 444 W/m 15,9 C 24,7 C 4,0 km/h (1 Bft) 0,00 %
24.07.2015 09:25 25,1 C 56 % 1009,4 hPa 0,0 l/m 2,2 km/h (1 Bft) N-NO 16 5 min 0,000 mm 2,0 UV-I 583 W/m 15,7 C 25,1 C 4,0 km/h (1 Bft) 0,00 %
24.07.2015 09:30 25,7 C 54 % 1009,2 hPa 0,0 l/m 5,4 km/h (1 Bft) O-SO 103 5 min 0,000 mm 2,0 UV-I 563 W/m 15,7 C 25,7 C 7,9 km/h (2 Bft) 0,00 %
24.07.2015 09:35 26,2 C 53 % 1009,1 hPa 0,0 l/m 0,0 km/h (0 Bft) N-NO 25 5 min 0,000 mm 2,0 UV-I 687 W/m 15,8 C 26,2 C 0,0 km/h (0 Bft) 0,00 %
24.07.2015 09:40 26,8 C 51 % 1008,9 hPa 0,0 l/m 0,4 km/h (0 Bft) NO 54 5 min 0,000 mm 3,0 UV-I 725 W/m 15,8 C 26,8 C 4,0 km/h (1 Bft) 0,00 %
24.07.2015 09:45 27,4 C 51 % 1008,8 hPa 0,0 l/m 0,0 km/h (0 Bft) NO 53 5 min 0,000 mm 3,0 UV-I 709 W/m 16,3 C 27,4 C 0,0 km/h (0 Bft) 0,00 %
24.07.2015 09:50 27,8 C 52 % 1008,6 hPa 0,0 l/m 7,2 km/h (2 Bft) SO 135 5 min 0,000 mm 2,0 UV-I 693 W/m 17,0 C 27,7 C 11,9 km/h (2 Bft) 0,00 %
24.07.2015 09:55 27,8 C 50 % 1008,9 hPa 0,0 l/m 5,8 km/h (2 Bft) N-NO 12 5 min 0,000 mm 2,0 UV-I 524 W/m 16,4 C 27,8 C 7,9 km/h (2 Bft) 0,00 %
24.07.2015 10:00 27,7 C 51 % 1008,8 hPa 0,0 l/m 0,0 km/h (0 Bft) O-NO 69 5 min 0,000 mm 2,0 UV-I 582 W/m 16,6 C 27,7 C 0,0 km/h (0 Bft) 0,00 %
24.07.2015 10:05 27,7 C 50 % 1008,8 hPa 0,0 l/m 0,0 km/h (0 Bft) O-NO 73 5 min 0,000 mm 2,0 UV-I 476 W/m 16,3 C 27,7 C 0,0 km/h (0 Bft) 0,00 %
24.07.2015 10:10 27,5 C 50 % 1008,5 hPa 0,0 l/m 0,4 km/h (0 Bft) N-NO 30 5 min 0,000 mm 2,0 UV-I 441 W/m 16,1 C 27,5 C 4,0 km/h (1 Bft) 0,00 %
24.07.2015 10:15 27,2 C 52 % 1008,7 hPa 0,0 l/m 1,8 km/h (1 Bft) O-NO 77 5 min 0,000 mm 2,0 UV-I 477 W/m 16,5 C 27,2 C 4,0 km/h (1 Bft) 0,00 %
24.07.2015 10:20 26,8 C 52 % 1008,7 hPa 0,0 l/m 4,7 km/h (1 Bft) O 92 5 min 0,000 mm 2,0 UV-I 626 W/m 16,1 C 26,8 C 7,9 km/h (2 Bft) 0,00 %
24.07.2015 10:25 26,7 C 53 % 1008,5 hPa 0,0 l/m 2,2 km/h (1 Bft) N-NW 347 5 min 0,000 mm 3,0 UV-I 808 W/m 16,3 C 26,7 C 4,0 km/h (1 Bft) 0,00 %
24.07.2015 10:30 26,8 C 54 % 1008,8 hPa 0,0 l/m 3,2 km/h (1 Bft) O-NO 65 5 min 0,000 mm 3,0 UV-I 762 W/m 16,7 C 26,8 C 4,0 km/h (1 Bft) 0,00 %
24.07.2015 10:35 27,3 C 50 % 1008,5 hPa 0,0 l/m 1,8 km/h (1 Bft) N 4 5 min 0,000 mm 3,0 UV-I 686 W/m 15,9 C 27,3 C 4,0 km/h (1 Bft) 0,00 %
24.07.2015 10:40 27,9 C 49 % 1008,4 hPa 0,0 l/m 0,4 km/h (0 Bft) NO 45 5 min 0,000 mm 3,0 UV-I 618 W/m 16,2 C 27,9 C 4,0 km/h (1 Bft) 0,00 %
24.07.2015 10:45 28,3 C 49 % 1008,3 hPa 0,0 l/m 10,8 km/h (2 Bft) O-SO 107 5 min 0,000 mm 3,0 UV-I 513 W/m 16,5 C 27,7 C 15,8 km/h (3 Bft) 0,00 %
24.07.2015 10:50 28,4 C 48 % 1008,3 hPa 0,0 l/m 2,9 km/h (1 Bft) O-SO 119 0 min 0,000 mm 3,0 UV-I 384 W/m 16,3 C 28,4 C 4,0 km/h (1 Bft) 0,00 %
24.07.2015 10:55 28,5 C 48 % 1008,1 hPa 0,0 l/m 3,2 km/h (1 Bft) NO 49 0 min 0,000 mm 2,0 UV-I 393 W/m 16,4 C 28,5 C 4,0 km/h (1 Bft) 0,00 %
24.07.2015 11:00 28,0 C 51 % 1008,3 hPa 0,0 l/m 0,4 km/h (0 Bft) O-SO 113 5 min 0,000 mm 2,0 UV-I 494 W/m 16,9 C 28,0 C 4,0 km/h (1 Bft) 0,00 %
24.07.2015 11:05 27,3 C 52 % 1008,4 hPa 0,0 l/m 3,2 km/h (1 Bft) O 83 5 min 0,000 mm 2,0 UV-I 532 W/m 16,6 C 27,3 C 7,9 km/h (2 Bft) 0,00 %
24.07.2015 11:10 26,9 C 53 % 1008,2 hPa 0,0 l/m 0,0 km/h (0 Bft) N-NO 30 5 min 0,000 mm 3,0 UV-I 606 W/m 16,5 C 26,9 C 0,0 km/h (0 Bft) 0,00 %
24.07.2015 11:15 26,7 C 52 % 1008,1 hPa 0,0 l/m 6,5 km/h (2 Bft) O-SO 111 5 min 0,000 mm 3,0 UV-I 662 W/m 16,0 C 26,7 C 7,9 km/h (2 Bft) 0,00 %
24.07.2015 11:20 26,8 C 53 % 1008,1 hPa 0,0 l/m 0,4 km/h (0 Bft) N-NO 24 5 min 0,000 mm 3,0 UV-I 732 W/m 16,4 C 26,8 C 4,0 km/h (1 Bft) 0,00 %
24.07.2015 11:25 26,9 C 52 % 1008,0 hPa 0,0 l/m 0,0 km/h (0 Bft) NO 38 5 min 0,000 mm 3,0 UV-I 748 W/m 16,2 C 26,9 C 0,0 km/h (0 Bft) 0,00 %
24.07.2015 11:30 27,3 C 53 % 1008,1 hPa 0,0 l/m 0,0 km/h (0 Bft) SO 140 5 min 0,000 mm 4,0 UV-I 657 W/m 16,9 C 27,3 C 0,0 km/h (0 Bft) 0,00 %
24.07.2015 11:35 27,7 C 51 % 1007,8 hPa 0,0 l/m 0,4 km/h (0 Bft) SO 137 5 min 0,000 mm 4,0 UV-I 704 W/m 16,6 C 27,7 C 4,0 km/h (1 Bft) 0,00 %
24.07.2015 11:40 27,8 C 49 % 1007,6 hPa 0,0 l/m 0,7 km/h (0 Bft) N 352 5 min 0,000 mm 4,0 UV-I 678 W/m 16,1 C 27,8 C 4,0 km/h (1 Bft) 0,00 %
24.07.2015 11:45 28,0 C 49 % 1007,6 hPa 0,0 l/m 5,8 km/h (2 Bft) N-NW 348 5 min 0,000 mm 4,0 UV-I 669 W/m 16,3 C 28,0 C 11,9 km/h (2 Bft) 0,00 %
24.07.2015 11:50 28,0 C 50 % 1007,5 hPa 0,0 l/m 5,4 km/h (1 Bft) O-NO 60 5 min 0,000 mm 4,0 UV-I 620 W/m 16,6 C 28,0 C 7,9 km/h (2 Bft) 0,00 %
24.07.2015 11:55 28,0 C 49 % 1007,4 hPa 0,0 l/m 2,2 km/h (1 Bft) N-NW 344 5 min 0,000 mm 4,0 UV-I 589 W/m 16,3 C 28,0 C 4,0 km/h (1 Bft) 0,00 %
24.07.2015 12:00 28,1 C 48 % 1007,4 hPa 0,0 l/m 2,9 km/h (1 Bft) O-SO 110 5 min 0,000 mm 4,0 UV-I 599 W/m 16,0 C 28,1 C 4,0 km/h (1 Bft) 0,00 %
24.07.2015 12:05 28,3 C 48 % 1007,3 hPa 0,0 l/m 0,7 km/h (0 Bft) W 267 5 min 0,000 mm 3,0 UV-I 666 W/m 16,2 C 28,3 C 4,0 km/h (1 Bft) 0,00 %
24.07.2015 12:10 28,6 C 48 % 1007,2 hPa 0,0 l/m 4,7 km/h (1 Bft) O-SO 112 5 min 0,000 mm 3,0 UV-I 700 W/m 16,5 C 28,6 C 7,9 km/h (2 Bft) 0,00 %
24.07.2015 12:15 28,5 C 49 % 1007,1 hPa 0,0 l/m 0,4 km/h (0 Bft) O-NO 63 5 min 0,000 mm 4,0 UV-I 663 W/m 16,7 C 28,5 C 4,0 km/h (1 Bft) 0,00 %
24.07.2015 12:20 28,3 C 48 % 1007,1 hPa 0,0 l/m 5,4 km/h (1 Bft) W-NW 301 5 min 0,000 mm 4,0 UV-I 645 W/m 16,2 C 28,3 C 7,9 km/h (2 Bft) 0,00 %
24.07.2015 12:25 28,3 C 49 % 1007,1 hPa 0,0 l/m 8,3 km/h (2 Bft) O 94 5 min 0,000 mm 4,0 UV-I 723 W/m 16,5 C 28,0 C 11,9 km/h (2 Bft) 0,00 %
24.07.2015 12:30 28,4 C 49 % 1007,0 hPa 0,0 l/m 0,0 km/h (0 Bft) SO 129 5 min 0,000 mm 4,0 UV-I 726 W/m 16,6 C 28,4 C 0,0 km/h (0 Bft) 0,00 %
24.07.2015 12:35 28,6 C 48 % 1006,9 hPa 0,0 l/m 0,7 km/h (0 Bft) NO 37 5 min 0,000 mm 4,0 UV-I 717 W/m 16,5 C 28,6 C 4,0 km/h (1 Bft) 0,00 %
24.07.2015 12:40 28,9 C 47 % 1006,7 hPa 0,0 l/m 1,4 km/h (1 Bft) N 11 5 min 0,000 mm 4,0 UV-I 811 W/m 16,4 C 28,9 C 4,0 km/h (1 Bft) 0,00 %
24.07.2015 12:45 29,2 C 46 % 1006,6 hPa 0,0 l/m 0,4 km/h (0 Bft) NO 54 5 min 0,000 mm 4,0 UV-I 878 W/m 16,4 C 29,2 C 4,0 km/h (1 Bft) 0,00 %
24.07.2015 12:50 29,3 C 46 % 1006,5 hPa 0,0 l/m 9,0 km/h (2 Bft) O-NO 69 5 min 0,000 mm 4,0 UV-I 857 W/m 16,5 C 29,0 C 11,9 km/h (2 Bft) 0,00 %
24.07.2015 12:55 29,4 C 46 % 1006,6 hPa 0,0 l/m 3,2 km/h (1 Bft) SO 139 5 min 0,000 mm 5,0 UV-I 892 W/m 16,5 C 29,4 C 4,0 km/h (1 Bft) 0,00 %
24.07.2015 13:00 29,5 C 44 % 1006,2 hPa 0,0 l/m 0,0 km/h (0 Bft) NO 43 5 min 0,000 mm 5,0 UV-I 921 W/m 15,9 C 29,5 C 0,0 km/h (0 Bft) 0,00 %
24.07.2015 13:05 29,8 C 44 % 1006,3 hPa 0,0 l/m 1,4 km/h (1 Bft) O 88 5 min 0,000 mm 5,0 UV-I 889 W/m 16,2 C 29,8 C 4,0 km/h (1 Bft) 0,00 %
24.07.2015 13:10 29,9 C 44 % 1006,3 hPa 0,0 l/m 5,4 km/h (1 Bft) O 81 5 min 0,000 mm 5,0 UV-I 877 W/m 16,3 C 29,9 C 7,9 km/h (2 Bft) 0,00 %
24.07.2015 13:15 29,9 C 46 % 1005,9 hPa 0,0 l/m 5,8 km/h (2 Bft) SO 146 5 min 0,000 mm 5,0 UV-I 909 W/m 17,0 C 29,9 C 7,9 km/h (2 Bft) 0,00 %
24.07.2015 13:20 29,9 C 44 % 1006,0 hPa 0,0 l/m 2,2 km/h (1 Bft) N-NO 18 5 min 0,000 mm 4,0 UV-I 964 W/m 16,3 C 29,9 C 4,0 km/h (1 Bft) 0,00 %
24.07.2015 13:25 30,0 C 43 % 1006,0 hPa 0,0 l/m 0,0 km/h (0 Bft) O-NO 74 5 min 0,000 mm 4,0 UV-I 900 W/m 16,0 C 30,0 C 0,0 km/h (0 Bft) 0,00 %
24.07.2015 13:30 30,3 C 42 % 1005,8 hPa 0,0 l/m 5,4 km/h (1 Bft) SO 143 5 min 0,000 mm 4,0 UV-I 864 W/m 15,9 C 30,3 C 7,9 km/h (2 Bft) 0,00 %
24.07.2015 13:35 30,5 C 43 % 1005,8 hPa 0,0 l/m 0,7 km/h (0 Bft) N 10 5 min 0,000 mm 4,0 UV-I 697 W/m 16,5 C 30,5 C 4,0 km/h (1 Bft) 0,00 %
24.07.2015 13:40 30,6 C 43 % 1005,5 hPa 0,0 l/m 4,7 km/h (1 Bft) O 99 5 min 0,000 mm 4,0 UV-I 761 W/m 16,6 C 30,6 C 7,9 km/h (2 Bft) 0,00 %
24.07.2015 13:45 30,8 C 42 % 1005,4 hPa 0,0 l/m 1,8 km/h (1 Bft) O 80 5 min 0,000 mm 5,0 UV-I 778 W/m 16,4 C 30,8 C 4,0 km/h (1 Bft) 0,00 %
24.07.2015 13:50 31,1 C 40 % 1005,5 hPa 0,0 l/m 0,7 km/h (0 Bft) N 357 5 min 0,000 mm 4,0 UV-I 726 W/m 15,9 C 31,1 C 4,0 km/h (1 Bft) 0,00 %
24.07.2015 13:55 31,4 C 41 % 1005,3 hPa 0,0 l/m 6,5 km/h (2 Bft) O 90 5 min 0,000 mm 4,0 UV-I 714 W/m 16,5 C 31,4 C 7,9 km/h (2 Bft) 0,00 %
24.07.2015 14:00 31,4 C 41 % 1005,2 hPa 0,0 l/m 9,0 km/h (2 Bft) O-SO 107 5 min 0,000 mm 4,0 UV-I 728 W/m 16,5 C 31,3 C 19,8 km/h (3 Bft) 0,00 %
24.07.2015 14:05 31,1 C 40 % 1005,5 hPa 0,0 l/m 6,8 km/h (2 Bft) O-SO 109 5 min 0,000 mm 4,0 UV-I 645 W/m 15,9 C 31,1 C 7,9 km/h (2 Bft) 0,00 %
24.07.2015 14:10 31,0 C 42 % 1005,1 hPa 0,0 l/m 0,7 km/h (0 Bft) N 10 5 min 0,000 mm 3,0 UV-I 797 W/m 16,6 C 31,0 C 4,0 km/h (1 Bft) 0,00 %
24.07.2015 14:15 31,2 C 40 % 1005,1 hPa 0,0 l/m 0,0 km/h (0 Bft) O 86 5 min 0,000 mm 3,0 UV-I 865 W/m 16,0 C 31,2 C 0,0 km/h (0 Bft) 0,00 %
24.07.2015 14:20 31,4 C 40 % 1004,9 hPa 0,0 l/m 0,0 km/h (0 Bft) O-SO 122 5 min 0,000 mm 3,0 UV-I 820 W/m 16,1 C 31,4 C 0,0 km/h (0 Bft) 0,00 %
24.07.2015 14:25 31,7 C 41 % 1004,8 hPa 0,0 l/m 4,0 km/h (1 Bft) O-NO 78 5 min 0,000 mm 3,0 UV-I 898 W/m 16,8 C 31,7 C 7,9 km/h (2 Bft) 0,00 %
24.07.2015 14:30 31,9 C 40 % 1004,8 hPa 0,0 l/m 1,8 km/h (1 Bft) O-NO 57 5 min 0,000 mm 4,0 UV-I 958 W/m 16,6 C 31,9 C 4,0 km/h (1 Bft) 0,00 %
24.07.2015 14:35 31,7 C 40 % 1004,6 hPa 0,0 l/m 2,2 km/h (1 Bft) N-NW 335 5 min 0,000 mm 4,0 UV-I 961 W/m 16,4 C 31,7 C 4,0 km/h (1 Bft) 0,00 %
24.07.2015 14:40 31,5 C 40 % 1004,7 hPa 0,0 l/m 0,0 km/h (0 Bft) NO 36 5 min 0,000 mm 4,0 UV-I 839 W/m 16,2 C 31,5 C 0,0 km/h (0 Bft) 0,00 %
24.07.2015 14:45 31,8 C 41 % 1004,6 hPa 0,0 l/m 1,4 km/h (1 Bft) NO 37 5 min 0,000 mm 3,0 UV-I 662 W/m 16,9 C 31,8 C 4,0 km/h (1 Bft) 0,00 %
24.07.2015 14:50 32,1 C 42 % 1004,5 hPa 0,0 l/m 3,2 km/h (1 Bft) NO 51 5 min 0,000 mm 4,0 UV-I 705 W/m 17,5 C 32,1 C 7,9 km/h (2 Bft) 0,00 %
24.07.2015 14:55 32,3 C 41 % 1004,3 hPa 0,0 l/m 0,0 km/h (0 Bft) NO 48 5 min 0,000 mm 4,0 UV-I 654 W/m 17,3 C 32,3 C 0,0 km/h (0 Bft) 0,00 %
24.07.2015 15:00 32,7 C 39 % 1004,3 hPa 0,0 l/m 4,0 km/h (1 Bft) O 85 5 min 0,000 mm 4,0 UV-I 731 W/m 16,9 C 32,7 C 7,9 km/h (2 Bft) 0,00 %
24.07.2015 15:05 32,8 C 40 % 1004,1 hPa 0,0 l/m 1,4 km/h (1 Bft) O 98 5 min 0,000 mm 3,0 UV-I 761 W/m 17,4 C 32,8 C 4,0 km/h (1 Bft) 0,00 %
24.07.2015 15:10 32,6 C 41 % 1004,1 hPa 0,0 l/m 0,0 km/h (0 Bft) O-NO 74 5 min 0,000 mm 3,0 UV-I 776 W/m 17,6 C 32,6 C 0,0 km/h (0 Bft) 0,00 %
24.07.2015 15:15 32,5 C 42 % 1003,9 hPa 0,0 l/m 0,7 km/h (0 Bft) N-NO 31 5 min 0,000 mm 3,0 UV-I 842 W/m 17,9 C 32,5 C 4,0 km/h (1 Bft) 0,00 %
24.07.2015 15:20 32,4 C 42 % 1003,9 hPa 0,0 l/m 1,4 km/h (1 Bft) NO 44 5 min 0,000 mm 3,0 UV-I 696 W/m 17,8 C 32,4 C 4,0 km/h (1 Bft) 0,00 %
24.07.2015 15:25 32,4 C 40 % 1003,9 hPa 0,0 l/m 7,9 km/h (2 Bft) SO 127 5 min 0,000 mm 3,0 UV-I 846 W/m 17,0 C 32,4 C 11,9 km/h (2 Bft) 0,00 %
24.07.2015 15:30 32,3 C 39 % 1003,9 hPa 0,0 l/m 8,3 km/h (2 Bft) O-SO 112 5 min 0,000 mm 3,0 UV-I 715 W/m 16,5 C 32,3 C 11,9 km/h (2 Bft) 0,00 %
24.07.2015 15:35 32,3 C 39 % 1003,8 hPa 0,0 l/m 0,0 km/h (0 Bft) NO 53 5 min 0,000 mm 3,0 UV-I 618 W/m 16,5 C 32,3 C 0,0 km/h (0 Bft) 0,00 %
24.07.2015 15:40 32,6 C 38 % 1003,5 hPa 0,0 l/m 0,0 km/h (0 Bft) N-NO 15 5 min 0,000 mm 3,0 UV-I 485 W/m 16,4 C 32,6 C 0,0 km/h (0 Bft) 0,00 %
24.07.2015 15:45 33,0 C 37 % 1003,3 hPa 0,0 l/m 1,4 km/h (1 Bft) O 99 5 min 0,000 mm 3,0 UV-I 562 W/m 16,3 C 33,0 C 4,0 km/h (1 Bft) 0,00 %
24.07.2015 15:50 33,2 C 38 % 1003,2 hPa 0,0 l/m 0,0 km/h (0 Bft) N-NO 17 5 min 0,000 mm 3,0 UV-I 592 W/m 16,9 C 33,2 C 0,0 km/h (0 Bft) 0,00 %
24.07.2015 15:55 32,9 C 38 % 1003,6 hPa 0,0 l/m 3,2 km/h (1 Bft) O 90 5 min 0,000 mm 3,0 UV-I 683 W/m 16,7 C 32,9 C 4,0 km/h (1 Bft) 0,00 %
24.07.2015 16:00 32,9 C 37 % 1003,5 hPa 0,0 l/m 4,3 km/h (1 Bft) O-SO 109 5 min 0,000 mm 2,0 UV-I 709 W/m 16,2 C 32,9 C 7,9 km/h (2 Bft) 0,00 %
24.07.2015 16:05 33,1 C 36 % 1003,4 hPa 0,0 l/m 4,0 km/h (1 Bft) O-SO 105 5 min 0,000 mm 2,0 UV-I 710 W/m 16,0 C 33,1 C 7,9 km/h (2 Bft) 0,00 %
24.07.2015 16:10 33,1 C 38 % 1002,9 hPa 0,0 l/m 0,4 km/h (0 Bft) O 96 5 min 0,000 mm 2,0 UV-I 814 W/m 16,8 C 33,1 C 4,0 km/h (1 Bft) 0,00 %
24.07.2015 16:15 32,8 C 41 % 1003,4 hPa 0,0 l/m 0,0 km/h (0 Bft) N 9 5 min 0,000 mm 2,0 UV-I 870 W/m 17,8 C 32,8 C 0,0 km/h (0 Bft) 0,00 %
24.07.2015 16:20 32,5 C 41 % 1003,1 hPa 0,0 l/m 0,0 km/h (0 Bft) NO 41 5 min 0,000 mm 2,0 UV-I 622 W/m 17,5 C 32,5 C 0,0 km/h (0 Bft) 0,00 %
24.07.2015 16:25 32,4 C 41 % 1003,1 hPa 0,0 l/m 0,0 km/h (0 Bft) NO 37 0 min 0,000 mm 2,0 UV-I 354 W/m 17,4 C 32,4 C 0,0 km/h (0 Bft) 0,00 %
24.07.2015 16:30 32,6 C 37 % 1003,0 hPa 0,0 l/m 0,0 km/h (0 Bft) NO 52 0 min 0,000 mm 2,0 UV-I 298 W/m 16,0 C 32,6 C 0,0 km/h (0 Bft) 0,00 %
24.07.2015 16:35 32,9 C 38 % 1003,1 hPa 0,0 l/m 0,0 km/h (0 Bft) O 85 0 min 0,000 mm 2,0 UV-I 266 W/m 16,7 C 32,9 C 0,0 km/h (0 Bft) 0,00 %
24.07.2015 16:40 33,3 C 37 % 1002,7 hPa 0,0 l/m 10,4 km/h (2 Bft) SO 129 0 min 0,000 mm 2,0 UV-I 243 W/m 16,6 C 33,3 C 11,9 km/h (2 Bft) 0,00 %
24.07.2015 16:45 33,3 C 37 % 1002,7 hPa 0,0 l/m 4,0 km/h (1 Bft) N-NO 31 0 min 0,000 mm 2,0 UV-I 258 W/m 16,6 C 33,3 C 7,9 km/h (2 Bft) 0,00 %
24.07.2015 16:50 33,3 C 38 % 1002,6 hPa 0,0 l/m 5,4 km/h (1 Bft) O-NO 75 5 min 0,000 mm 2,0 UV-I 632 W/m 17,0 C 33,3 C 7,9 km/h (2 Bft) 0,00 %
24.07.2015 16:55 33,0 C 38 % 1002,6 hPa 0,0 l/m 3,2 km/h (1 Bft) O-NO 69 0 min 0,000 mm 1,0 UV-I 317 W/m 16,8 C 33,0 C 4,0 km/h (1 Bft) 0,00 %
24.07.2015 17:00 32,4 C 40 % 1002,6 hPa 0,0 l/m 0,4 km/h (0 Bft) O 98 5 min 0,000 mm 1,0 UV-I 490 W/m 17,0 C 32,4 C 4,0 km/h (1 Bft) 0,00 %
24.07.2015 17:05 31,9 C 39 % 1002,7 hPa 0,0 l/m 5,8 km/h (2 Bft) O 96 5 min 0,000 mm 1,0 UV-I 748 W/m 16,2 C 31,9 C 7,9 km/h (2 Bft) 0,00 %
24.07.2015 17:10 31,6 C 39 % 1002,7 hPa 0,0 l/m 0,0 km/h (0 Bft) O-NO 75 5 min 0,000 mm 1,0 UV-I 696 W/m 15,9 C 31,6 C 0,0 km/h (0 Bft) 0,00 %
24.07.2015 17:15 31,4 C 39 % 1002,6 hPa 0,0 l/m 0,7 km/h (0 Bft) NO 46 0 min 0,000 mm 1,0 UV-I 275 W/m 15,7 C 31,4 C 4,0 km/h (1 Bft) 0,00 %
24.07.2015 17:20 31,3 C 39 % 1002,4 hPa 0,0 l/m 2,2 km/h (1 Bft) NO 51 0 min 0,000 mm 1,0 UV-I 253 W/m 15,7 C 31,3 C 4,0 km/h (1 Bft) 0,00 %
24.07.2015 17:25 31,3 C 39 % 1002,7 hPa 0,0 l/m 1,8 km/h (1 Bft) O-SO 111 0 min 0,000 mm 1,0 UV-I 222 W/m 15,7 C 31,3 C 4,0 km/h (1 Bft) 0,00 %
24.07.2015 17:30 31,5 C 39 % 1002,3 hPa 0,0 l/m 0,0 km/h (0 Bft) O 100 0 min 0,000 mm 1,0 UV-I 177 W/m 15,8 C 31,5 C 0,0 km/h (0 Bft) 0,00 %
24.07.2015 17:35 31,6 C 39 % 1002,2 hPa 0,0 l/m 7,2 km/h (2 Bft) O 93 0 min 0,000 mm 1,0 UV-I 148 W/m 15,9 C 31,6 C 11,9 km/h (2 Bft) 0,00 %
24.07.2015 17:40 31,7 C 40 % 1002,2 hPa 0,0 l/m 2,9 km/h (1 Bft) O 79 0 min 0,000 mm 1,0 UV-I 120 W/m 16,4 C 31,7 C 4,0 km/h (1 Bft) 0,00 %
24.07.2015 17:45 31,8 C 39 % 1002,1 hPa 0,0 l/m 1,4 km/h (1 Bft) O 79 0 min 0,000 mm 1,0 UV-I 106 W/m 16,1 C 31,8 C 4,0 km/h (1 Bft) 0,00 %
24.07.2015 17:50 31,8 C 39 % 1002,0 hPa 0,0 l/m 0,0 km/h (0 Bft) NO 48 0 min 0,000 mm 1,0 UV-I 97 W/m 16,1 C 31,8 C 0,0 km/h (0 Bft) 0,00 %
24.07.2015 17:55 31,7 C 39 % 1002,0 hPa 0,0 l/m 0,0 km/h (0 Bft) O 82 0 min 0,000 mm 1,0 UV-I 73 W/m 16,0 C 31,7 C 0,0 km/h (0 Bft) 0,00 %
24.07.2015 18:00 31,5 C 39 % 1002,0 hPa 0,0 l/m 0,7 km/h (0 Bft) N-NO 32 0 min 0,000 mm 1,0 UV-I 64 W/m 15,8 C 31,5 C 4,0 km/h (1 Bft) 0,00 %
24.07.2015 18:05 31,3 C 41 % 1001,9 hPa 0,0 l/m 2,2 km/h (1 Bft) O-NO 57 0 min 0,000 mm 1,0 UV-I 57 W/m 16,4 C 31,3 C 4,0 km/h (1 Bft) 0,00 %
24.07.2015 18:10 30,9 C 41 % 1002,1 hPa 0,0 l/m 6,8 km/h (2 Bft) O-SO 120 0 min 0,000 mm 1,0 UV-I 50 W/m 16,1 C 30,9 C 7,9 km/h (2 Bft) 0,00 %
24.07.2015 18:15 30,5 C 41 % 1002,1 hPa 0,0 l/m 4,0 km/h (1 Bft) O-SO 117 0 min 0,000 mm 1,0 UV-I 45 W/m 15,7 C 30,5 C 7,9 km/h (2 Bft) 0,00 %
24.07.2015 18:20 30,3 C 42 % 1002,1 hPa 0,0 l/m 0,0 km/h (0 Bft) NO 52 0 min 0,000 mm 1,0 UV-I 42 W/m 15,9 C 30,3 C 0,0 km/h (0 Bft) 0,00 %
24.07.2015 18:25 30,0 C 43 % 1002,1 hPa 0,0 l/m 2,9 km/h (1 Bft) O 91 0 min 0,000 mm 1,0 UV-I 43 W/m 16,0 C 30,0 C 4,0 km/h (1 Bft) 0,00 %
24.07.2015 18:30 29,9 C 43 % 1002,0 hPa 0,0 l/m 2,9 km/h (1 Bft) O-NO 73 0 min 0,000 mm 0,0 UV-I 47 W/m 15,9 C 29,9 C 4,0 km/h (1 Bft) 0,00 %
24.07.2015 18:35 29,8 C 43 % 1002,0 hPa 0,0 l/m 0,0 km/h (0 Bft) O-SO 108 0 min 0,000 mm 0,0 UV-I 54 W/m 15,8 C 29,8 C 0,0 km/h (0 Bft) 0,00 %
24.07.2015 18:40 29,7 C 44 % 1002,1 hPa 0,0 l/m 0,0 km/h (0 Bft) O-NO 58 0 min 0,000 mm 0,0 UV-I 56 W/m 16,1 C 29,7 C 0,0 km/h (0 Bft) 0,00 %
24.07.2015 18:45 29,5 C 44 % 1002,3 hPa 0,0 l/m 0,0 km/h (0 Bft) N 353 0 min 0,000 mm 0,0 UV-I 49 W/m 15,9 C 29,5 C 0,0 km/h (0 Bft) 0,00 %
24.07.2015 18:50 29,3 C 44 % 1002,3 hPa 0,0 l/m 0,4 km/h (0 Bft) O 86 0 min 0,000 mm 0,0 UV-I 43 W/m 15,8 C 29,3 C 4,0 km/h (1 Bft) 0,00 %
24.07.2015 18:55 29,2 C 45 % 1002,2 hPa 0,0 l/m 0,0 km/h (0 Bft) NO 54 0 min 0,000 mm 0,0 UV-I 37 W/m 16,0 C 29,2 C 0,0 km/h (0 Bft) 0,00 %
24.07.2015 19:00 29,0 C 46 % 1002,2 hPa 0,0 l/m 0,0 km/h (0 Bft) O-NO 67 0 min 0,000 mm 0,0 UV-I 32 W/m 16,2 C 29,0 C 0,0 km/h (0 Bft) 0,00 %
24.07.2015 19:05 28,9 C 47 % 1002,4 hPa 0,0 l/m 0,0 km/h (0 Bft) O 90 0 min 0,000 mm 0,0 UV-I 32 W/m 16,4 C 28,9 C 0,0 km/h (0 Bft) 0,00 %
24.07.2015 19:10 28,7 C 48 % 1002,5 hPa 0,0 l/m 0,0 km/h (0 Bft) NO 55 0 min 0,000 mm 0,0 UV-I 31 W/m 16,6 C 28,7 C 0,0 km/h (0 Bft) 0,00 %
24.07.2015 19:15 28,6 C 48 % 1002,3 hPa 0,0 l/m 0,0 km/h (0 Bft) NO 51 0 min 0,000 mm 0,0 UV-I 33 W/m 16,5 C 28,6 C 0,0 km/h (0 Bft) 0,00 %
24.07.2015 19:20 28,4 C 51 % 1002,4 hPa 0,0 l/m 0,0 km/h (0 Bft) O-NO 64 0 min 0,000 mm 0,0 UV-I 62 W/m 17,3 C 28,4 C 0,0 km/h (0 Bft) 0,00 %
24.07.2015 19:25 28,1 C 52 % 1002,5 hPa 0,0 l/m 0,0 km/h (0 Bft) N-NW 339 0 min 0,000 mm 0,0 UV-I 28 W/m 17,3 C 28,1 C 0,0 km/h (0 Bft) 0,00 %
24.07.2015 19:30 27,6 C 53 % 1002,5 hPa 0,0 l/m 0,0 km/h (0 Bft) NO 54 0 min 0,000 mm 0,0 UV-I 30 W/m 17,1 C 27,6 C 0,0 km/h (0 Bft) 0,00 %
24.07.2015 19:35 27,1 C 54 % 1002,3 hPa 0,0 l/m 0,0 km/h (0 Bft) NO 44 0 min 0,000 mm 0,0 UV-I 21 W/m 17,0 C 27,1 C 0,0 km/h (0 Bft) 0,00 %
24.07.2015 19:40 26,9 C 56 % 1002,6 hPa 0,0 l/m 0,0 km/h (0 Bft) N-NO 30 0 min 0,000 mm 0,0 UV-I 10 W/m 17,4 C 26,9 C 0,0 km/h (0 Bft) 0,00 %
24.07.2015 19:45 26,7 C 57 % 1002,3 hPa 0,0 l/m 0,0 km/h (0 Bft) NO 54 0 min 0,000 mm 0,0 UV-I 5 W/m 17,5 C 26,7 C 0,0 km/h (0 Bft) 0,00 %
24.07.2015 19:50 26,5 C 57 % 1002,6 hPa 0,0 l/m 0,0 km/h (0 Bft) NO 53 0 min 0,000 mm 0,0 UV-I 0 W/m 17,3 C 26,5 C 0,0 km/h (0 Bft) 0,00 %
24.07.2015 19:55 26,3 C 58 % 1002,4 hPa 0,0 l/m 0,0 km/h (0 Bft) N 352 0 min 0,000 mm 0,0 UV-I 0 W/m 17,4 C 26,3 C 0,0 km/h (0 Bft) 0,00 %
24.07.2015 20:00 26,1 C 60 % 1002,3 hPa 0,0 l/m 0,0 km/h (0 Bft) NO 46 0 min 0,000 mm 0,0 UV-I 0 W/m 17,7 C 26,1 C 0,0 km/h (0 Bft) 0,00 %
24.07.2015 20:05 25,9 C 61 % 1002,4 hPa 0,0 l/m 0,0 km/h (0 Bft) N-NO 25 0 min 0,000 mm 0,0 UV-I 0 W/m 17,8 C 25,9 C 0,0 km/h (0 Bft) 0,00 %
24.07.2015 20:10 25,8 C 61 % 1002,3 hPa 0,0 l/m 0,0 km/h (0 Bft) O-NO 58 0 min 0,000 mm 0,0 UV-I 0 W/m 17,7 C 25,8 C 0,0 km/h (0 Bft) 0,00 %
24.07.2015 20:15 25,7 C 61 % 1002,2 hPa 0,0 l/m 0,0 km/h (0 Bft) NO 39 0 min 0,000 mm 0,0 UV-I 0 W/m 17,6 C 25,7 C 0,0 km/h (0 Bft) 0,00 %
24.07.2015 20:20 25,6 C 62 % 1002,2 hPa 0,0 l/m 0,0 km/h (0 Bft) NO 39 0 min 0,000 mm 0,0 UV-I 0 W/m 17,8 C 25,6 C 0,0 km/h (0 Bft) 0,00 %
24.07.2015 20:25 25,6 C 62 % 1002,5 hPa 0,0 l/m 0,0 km/h (0 Bft) N 355 0 min 0,000 mm 0,0 UV-I 0 W/m 17,8 C 25,6 C 0,0 km/h (0 Bft) 0,00 %
24.07.2015 20:30 25,4 C 62 % 1002,5 hPa 0,0 l/m 0,0 km/h (0 Bft) NO 39 0 min 0,000 mm 0,0 UV-I 0 W/m 17,6 C 25,4 C 0,0 km/h (0 Bft) 0,00 %
24.07.2015 20:35 25,2 C 63 % 1002,6 hPa 0,0 l/m 0,0 km/h (0 Bft) NO 40 0 min 0,000 mm 0,0 UV-I 0 W/m 17,6 C 25,2 C 0,0 km/h (0 Bft) 0,00 %
24.07.2015 20:40 25,1 C 64 % 1002,3 hPa 0,0 l/m 0,0 km/h (0 Bft) NO 41 0 min 0,000 mm 0,0 UV-I 0 W/m 17,8 C 25,1 C 0,0 km/h (0 Bft) 0,00 %
24.07.2015 20:45 25,0 C 66 % 1002,3 hPa 0,0 l/m 0,0 km/h (0 Bft) NO 41 0 min 0,000 mm 0,0 UV-I 0 W/m 18,2 C 25,0 C 0,0 km/h (0 Bft) 0,00 %
24.07.2015 20:50 24,8 C 67 % 1002,4 hPa 0,0 l/m 0,0 km/h (0 Bft) NO 41 0 min 0,000 mm 0,0 UV-I 0 W/m 18,2 C 24,8 C 0,0 km/h (0 Bft) 0,00 %
24.07.2015 20:55 24,6 C 68 % 1002,5 hPa 0,0 l/m 0,0 km/h (0 Bft) NO 41 0 min 0,000 mm 0,0 UV-I 0 W/m 18,3 C 24,6 C 0,0 km/h (0 Bft) 0,00 %
24.07.2015 21:00 24,5 C 69 % 1002,6 hPa 0,0 l/m 0,0 km/h (0 Bft) NO 41 0 min 0,000 mm 0,0 UV-I 0 W/m 18,4 C 24,5 C 0,0 km/h (0 Bft) 0,00 %
24.07.2015 21:05 24,3 C 70 % 1002,8 hPa 0,0 l/m 0,0 km/h (0 Bft) NO 41 0 min 0,000 mm 0,0 UV-I 0 W/m 18,5 C 24,3 C 0,0 km/h (0 Bft) 0,00 %
24.07.2015 21:10 24,1 C 71 % 1002,6 hPa 0,0 l/m 0,0 km/h (0 Bft) NO 41 0 min 0,000 mm 0,0 UV-I 0 W/m 18,5 C 24,1 C 0,0 km/h (0 Bft) 0,00 %
24.07.2015 21:15 24,0 C 72 % 1002,7 hPa 0,0 l/m 0,0 km/h (0 Bft) NO 41 0 min 0,000 mm 0,0 UV-I 0 W/m 18,6 C 24,0 C 0,0 km/h (0 Bft) 0,00 %
24.07.2015 21:20 23,8 C 72 % 1002,8 hPa 0,0 l/m 0,0 km/h (0 Bft) N-NO 33 0 min 0,000 mm 0,0 UV-I 0 W/m 18,4 C 23,8 C 0,0 km/h (0 Bft) 0,00 %
24.07.2015 21:25 23,5 C 73 % 1002,7 hPa 0,0 l/m 0,0 km/h (0 Bft) NO 34 0 min 0,000 mm 0,0 UV-I 0 W/m 18,4 C 23,5 C 0,0 km/h (0 Bft) 0,00 %
24.07.2015 21:30 23,2 C 72 % 1003,1 hPa 0,0 l/m 0,0 km/h (0 Bft) N-NW 348 0 min 0,000 mm 0,0 UV-I 0 W/m 17,9 C 23,2 C 0,0 km/h (0 Bft) 0,00 %
24.07.2015 21:35 23,1 C 73 % 1002,9 hPa 0,0 l/m 0,0 km/h (0 Bft) O-NO 58 0 min 0,000 mm 0,0 UV-I 0 W/m 18,0 C 23,1 C 0,0 km/h (0 Bft) 0,00 %
24.07.2015 21:40 23,0 C 74 % 1002,9 hPa 0,0 l/m 0,0 km/h (0 Bft) NO 43 0 min 0,000 mm 0,0 UV-I 0 W/m 18,1 C 23,0 C 0,0 km/h (0 Bft) 0,00 %
24.07.2015 21:45 22,9 C 74 % 1002,9 hPa 0,0 l/m 0,0 km/h (0 Bft) O-NO 62 0 min 0,000 mm 0,0 UV-I 0 W/m 18,0 C 22,9 C 0,0 km/h (0 Bft) 0,00 %
24.07.2015 21:50 22,8 C 72 % 1003,0 hPa 0,0 l/m 0,0 km/h (0 Bft) NO 44 0 min 0,000 mm 0,0 UV-I 0 W/m 17,5 C 22,8 C 0,0 km/h (0 Bft) 0,00 %
24.07.2015 21:55 22,7 C 71 % 1003,0 hPa 0,0 l/m 0,0 km/h (0 Bft) NO 41 0 min 0,000 mm 0,0 UV-I 0 W/m 17,2 C 22,7 C 0,0 km/h (0 Bft) 0,00 %
24.07.2015 22:00 22,6 C 72 % 1002,8 hPa 0,0 l/m 0,0 km/h (0 Bft) NO 46 0 min 0,000 mm 0,0 UV-I 0 W/m 17,3 C 22,6 C 0,0 km/h (0 Bft) 0,00 %
24.07.2015 22:05 22,5 C 72 % 1002,9 hPa 0,0 l/m 0,0 km/h (0 Bft) NO 46 0 min 0,000 mm 0,0 UV-I 0 W/m 17,2 C 22,5 C 0,0 km/h (0 Bft) 0,00 %
24.07.2015 22:10 22,4 C 72 % 1003,0 hPa 0,0 l/m 0,0 km/h (0 Bft) NO 46 0 min 0,000 mm 0,0 UV-I 0 W/m 17,1 C 22,4 C 0,0 km/h (0 Bft) 0,00 %
24.07.2015 22:15 22,2 C 72 % 1003,0 hPa 0,0 l/m 0,0 km/h (0 Bft) O-NO 65 0 min 0,000 mm 0,0 UV-I 0 W/m 16,9 C 22,2 C 0,0 km/h (0 Bft) 0,00 %
24.07.2015 22:20 22,1 C 71 % 1002,7 hPa 0,0 l/m 0,0 km/h (0 Bft) O-NO 65 0 min 0,000 mm 0,0 UV-I 0 W/m 16,6 C 22,1 C 0,0 km/h (0 Bft) 0,00 %
24.07.2015 22:25 22,0 C 72 % 1003,0 hPa 0,0 l/m 0,0 km/h (0 Bft) O-NO 65 0 min 0,000 mm 0,0 UV-I 0 W/m 16,7 C 22,0 C 0,0 km/h (0 Bft) 0,00 %
24.07.2015 22:30 21,9 C 75 % 1003,0 hPa 0,0 l/m 0,0 km/h (0 Bft) NO 39 0 min 0,000 mm 0,0 UV-I 0 W/m 17,3 C 21,9 C 0,0 km/h (0 Bft) 0,00 %
24.07.2015 22:35 21,8 C 75 % 1003,2 hPa 0,0 l/m 0,0 km/h (0 Bft) NO 39 0 min 0,000 mm 0,0 UV-I 0 W/m 17,2 C 21,8 C 0,0 km/h (0 Bft) 0,00 %
24.07.2015 22:40 21,7 C 74 % 1003,0 hPa 0,0 l/m 0,0 km/h (0 Bft) O-NO 57 0 min 0,000 mm 0,0 UV-I 0 W/m 16,9 C 21,7 C 0,0 km/h (0 Bft) 0,00 %
24.07.2015 22:45 21,7 C 73 % 1003,1 hPa 0,0 l/m 0,0 km/h (0 Bft) NO 44 0 min 0,000 mm 0,0 UV-I 0 W/m 16,6 C 21,7 C 0,0 km/h (0 Bft) 0,00 %
24.07.2015 22:50 21,7 C 72 % 1003,1 hPa 0,0 l/m 0,0 km/h (0 Bft) NO 44 0 min 0,000 mm 0,0 UV-I 0 W/m 16,4 C 21,7 C 0,0 km/h (0 Bft) 0,00 %
24.07.2015 22:55 21,7 C 71 % 1003,0 hPa 0,0 l/m 0,0 km/h (0 Bft) O-NO 68 0 min 0,000 mm 0,0 UV-I 0 W/m 16,2 C 21,7 C 0,0 km/h (0 Bft) 0,00 %
24.07.2015 23:00 21,7 C 73 % 1003,1 hPa 0,0 l/m 0,0 km/h (0 Bft) NO 38 0 min 0,000 mm 0,0 UV-I 0 W/m 16,6 C 21,7 C 0,0 km/h (0 Bft) 0,00 %
24.07.2015 23:05 21,8 C 73 % 1003,1 hPa 0,0 l/m 0,0 km/h (0 Bft) NO 46 0 min 0,000 mm 0,0 UV-I 0 W/m 16,7 C 21,8 C 0,0 km/h (0 Bft) 0,00 %
24.07.2015 23:10 21,8 C 74 % 1002,8 hPa 0,0 l/m 0,0 km/h (0 Bft) O-NO 68 0 min 0,000 mm 0,0 UV-I 0 W/m 17,0 C 21,8 C 0,0 km/h (0 Bft) 0,00 %
24.07.2015 23:15 21,8 C 75 % 1002,8 hPa 0,0 l/m 0,0 km/h (0 Bft) O-NO 70 0 min 0,000 mm 0,0 UV-I 0 W/m 17,2 C 21,8 C 0,0 km/h (0 Bft) 0,00 %
24.07.2015 23:20 21,8 C 73 % 1002,9 hPa 0,0 l/m 0,0 km/h (0 Bft) O-NO 73 0 min 0,000 mm 0,0 UV-I 0 W/m 16,7 C 21,8 C 0,0 km/h (0 Bft) 0,00 %
24.07.2015 23:25 21,8 C 73 % 1003,2 hPa 0,0 l/m 0,0 km/h (0 Bft) O-NO 72 0 min 0,000 mm 0,0 UV-I 0 W/m 16,7 C 21,8 C 0,0 km/h (0 Bft) 0,00 %
24.07.2015 23:30 21,8 C 75 % 1003,1 hPa 0,0 l/m 0,0 km/h (0 Bft) N 352 0 min 0,000 mm 0,0 UV-I 0 W/m 17,2 C 21,8 C 0,0 km/h (0 Bft) 0,00 %
24.07.2015 23:35 21,8 C 76 % 1003,2 hPa 0,0 l/m 0,0 km/h (0 Bft) NO 36 0 min 0,000 mm 0,0 UV-I 0 W/m 17,4 C 21,8 C 0,0 km/h (0 Bft) 0,00 %
24.07.2015 23:40 21,7 C 75 % 1003,2 hPa 0,0 l/m 0,0 km/h (0 Bft) NO 49 0 min 0,000 mm 0,0 UV-I 0 W/m 17,1 C 21,7 C 0,0 km/h (0 Bft) 0,00 %
24.07.2015 23:45 21,7 C 74 % 1003,0 hPa 0,0 l/m 0,0 km/h (0 Bft) NO 44 0 min 0,000 mm 0,0 UV-I 0 W/m 16,9 C 21,7 C 0,0 km/h (0 Bft) 0,00 %
24.07.2015 23:50 21,6 C 74 % 1003,1 hPa 0,0 l/m 0,0 km/h (0 Bft) NO 41 0 min 0,000 mm 0,0 UV-I 0 W/m 16,8 C 21,6 C 0,0 km/h (0 Bft) 0,00 %
_ Min-Zeit 05:30 16:05 18:05 - 00:00 - - - - - - 03:10 05:30 00:00 00:00
Minimum _ 19,6 C 36 % 1001,9 hPa - 0,0 km/h (0 Bft) - - - - - - 15,2 C 19,6 C 0,0 km/h (0 Bft) 0,00 %
_ Max-Zeit 16:40 05:10 00:55 00:00 10:45 - - 06:45 00:00 12:55 13:20 21:15 16:40 14:00 00:00
Maximum _ 33,3 C 80 % 1011,8 hPa 0,0 l/m 10,8 km/h
O-SO (2 Bft)
- - 5 min 0,000 mm 5,0 UV-I 964 W/m 18,6 C 33,3 C 19,8 km/h
O-SO (3 Bft)
0,00 %
Durchschnitt _ 25,4 C 60 % 1006,9 hPa #0,0 l/m 1,2 km/h (1 Bft) O - #9:15 h #0,000 mm 2,5 UV-I 459 W/m 16,5 C 25,3 C 2,3 km/h (1 Bft) 0,00 %